DW3795 Weather Reports


Display with metric or nautical units.
time (UTC)temp
F
wind
direction
speed
MPH
gust
MPH
rain 1hr
in
rain 24hr
in
rain mn
in
humidity
%
barometer
mb
20260901140038 80 32 0.0 0.0 0.00 0.00 0.00 88 1018.7
20260901134551 77 339 0.0 0.0 0.00 0.00 0.00 93 1018.8
20260901133031 76 337 0.0 0.0 0.00 0.00 0.00 95 1018.8
20260901131524 74 322 0.0 0.0 0.00 0.00 0.00 96 1018.8
20260901130021 73 327 0.0 0.0 0.00 0.00 0.00 96 1018.8
20260901124525 72 316 0.0 0.0 0.00 0.00 0.00 96 1018.8
20260901123019 72 311 0.0 0.0 0.00 0.00 0.00 96 1018.8
20260901121617 71 313 0.0 0.0 0.00 0.00 0.00 96 1018.8
20260901120016 70 313 0.0 0.0 0.00 0.00 0.00 95 1018.7
20260901114512 70 313 0.0 0.0 0.00 0.00 0.00 95 1018.4
20260901113016 69 313 0.0 0.0 0.00 0.00 0.00 95 1018.3
20260901111509 69 313 0.0 0.0 0.00 0.00 0.00 95 1018.1
20260901110008 69 313 0.0 0.0 0.00 0.00 0.00 95 1018.1
20260901104506 69 313 0.0 0.0 0.00 0.00 0.00 94 1017.9
20260901103005 70 313 0.0 0.0 0.00 0.00 0.00 94 1017.8
20260901101504 70 313 0.0 0.0 0.00 0.00 0.00 94 1017.7
20260901100006 70 313 0.0 0.0 0.00 0.00 0.00 94 1017.8
20260901094502 70 313 0.0 0.0 0.00 0.00 0.00 94 1017.8
20260901093059 71 312 0.0 0.0 0.00 0.00 0.00 94 1017.9
20260901091559 71 312 0.0 0.0 0.00 0.00 0.00 94 1018.0
20260901084600 71 312 0.0 0.0 0.00 0.00 0.00 94 1017.8
20260901083056 71 312 0.0 1.0 0.00 0.00 0.00 94 1017.7
20260901081602 71 312 0.0 0.0 0.00 0.00 0.00 94 1017.8
20260901080054 71 312 0.0 0.0 0.00 0.00 0.00 94 1017.8
20260901074554 71 312 0.0 0.0 0.00 0.00 0.00 93 1017.8
20260901073059 72 312 0.0 0.0 0.00 0.00 0.00 93 1017.6
20260901071548 72 312 0.0 0.0 0.00 0.00 0.00 93 1017.6
20260901070057 72 312 0.0 0.0 0.00 0.00 0.00 93 1017.9
20260901064545 72 312 0.0 0.0 0.00 0.00 0.00 93 1017.9
20260901063046 73 312 0.0 1.0 0.00 0.00 0.00 93 1018.1
20260901061541 73 312 0.0 0.0 0.00 0.00 0.00 92 1018.2
20260901060041 73 312 0.0 0.0 0.00 0.00 0.00 92 1018.2
20260901054538 73 312 0.0 0.0 0.00 0.00 0.00 92 1018.2
20260901053100 74 312 0.0 0.0 0.00 0.00 0.00 91 1018.3
20260901051534 74 312 0.0 0.0 0.00 0.00 0.00 91 1018.3
20260901050033 74 312 0.0 0.0 0.00 0.00 0.00 91 1018.3
20260901044541 74 312 0.0 0.0 0.00 0.00 0.00 91 1018.4
20260901043035 75 312 0.0 0.0 0.00 0.00 0.00 90 1018.4
20260901041524 75 312 0.0 0.0 0.00 0.00 0.00 90 1018.2
20260901040023 75 312 0.0 0.0 0.00 0.00 0.00 90 1018.4
20260901034522 75 312 0.0 0.0 0.00 0.00 0.00 89 1018.4
20260901033027 76 312 0.0 0.0 0.00 0.00 0.00 89 1018.3
20260901031520 76 312 0.0 0.0 0.00 0.00 0.00 88 1018.3
20260901030021 76 312 0.0 0.0 0.00 0.00 0.00 87 1018.2
20260901024522 77 312 0.0 0.0 0.00 0.00 0.00 87 1018.3
20260901023119 78 312 0.0 0.0 0.00 0.00 0.00 86 1018.1
20260901021525 78 312 0.0 0.0 0.00 0.00 0.00 84 1018.1
20260901020040 79 312 0.0 0.0 0.00 0.00 0.00 83 1017.9
20260901014518 80 312 0.0 0.0 0.00 0.00 0.00 82 1018.0
20260901013017 80 312 0.0 0.0 0.00 0.00 0.00 81 1018.0
20260901011524 81 312 0.0 0.0 0.00 0.00 0.00 80 1017.9
20260901010016 81 312 0.0 0.0 0.00 0.00 0.00 79 1017.7
20260901004516 82 239 0.0 0.0 0.00 0.00 0.00 77 1017.3
20260901003015 83 239 0.0 0.0 0.00 0.00 0.00 74 1017.1
20260901001520 84 239 0.0 0.0 0.00 0.00 0.00 73 1017.1
20260901000013 85 237 0.0 4.0 0.00 0.00 0.00 70 1017.0
20260831234513 86 256 0.0 2.0 0.00 0.00 0.00 70 1017.0
20260831233028 86 235 0.0 3.0 0.00 0.00 0.00 69 1017.2
20260831231512 87 230 0.0 4.0 0.00 0.00 0.00 66 1016.9
20260831230011 88 194 1.0 5.0 0.00 0.00 0.00 65 1016.8
20260831224511 88 176 2.0 5.0 0.00 0.00 0.00 64 1016.8
20260831223010 89 179 0.0 3.0 0.00 0.00 0.00 63 1016.8
20260831221509 90 164 0.0 7.0 0.00 0.00 0.00 61 1016.8
20260831220009 91 180 3.0 8.0 0.00 0.00 0.00 60 1016.8
20260831214515 91 179 2.0 5.0 0.00 0.00 0.00 62 1016.8
20260831213008 93 150 0.0 4.0 0.00 0.00 0.00 57 1016.8
20260831211508 95 194 0.0 0.0 0.00 0.00 0.00 53 1016.9
20260831210013 96 194 3.0 4.0 0.00 0.00 0.00 50 1016.9
20260831204511 97 176 1.0 5.0 0.00 0.00 0.00 47 1017.0
20260831203004 97 159 0.0 3.0 0.00 0.00 0.00 47 1017.1
20260831201600 96 169 1.0 5.0 0.00 0.00 0.00 47 1017.3
20260831200058 95 5 1.0 4.0 0.00 0.00 0.00 59 1017.3
20260831194631 93 298 0.0 2.0 0.00 0.00 0.00 62 1017.4
20260831193055 93 298 0.0 1.0 0.00 0.00 0.00 56 1017.5
20260831191553 93 297 0.0 2.0 0.00 0.00 0.00 63 1017.8
20260831190058 92 295 0.0 1.0 0.00 0.00 0.00 64 1018.1
20260831184612 92 294 1.0 2.0 0.00 0.00 0.00 61 1018.1
20260831183101 93 293 0.0 3.0 0.00 0.00 0.00 58 1018.3
20260831181648 94 289 0.0 3.0 0.00 0.00 0.00 54 1018.3
20260831180048 95 179 0.0 5.0 0.00 0.00 0.00 53 1018.4
20260831174550 96 171 0.0 5.0 0.00 0.00 0.00 54 1018.5
20260831173147 96 165 3.0 8.0 0.00 0.00 0.00 52 1018.6
20260831171540 95 319 1.0 7.0 0.00 0.00 0.00 54 1018.8
20260831170036 94 337 1.0 4.0 0.00 0.00 0.00 60 1019.1
20260831164535 93 5 0.0 0.0 0.00 0.00 0.00 59 1019.1
20260831163030 93 339 0.0 0.0 0.00 0.00 0.00 57 1019.3
20260831161526 92 346 0.0 0.0 0.00 0.00 0.00 60 1019.2
20260831160028 91 303 0.0 0.0 0.00 0.00 0.00 62 1019.4
20260831154521 89 56 1.0 4.0 0.00 0.00 0.00 65 1019.5
20260831153015 88 258 3.0 6.0 0.00 0.00 0.00 66 1019.6
20260831151510 87 183 2.0 5.0 0.00 0.00 0.00 69 1019.7
20260831150013 85 181 3.0 6.0 0.00 0.00 0.00 72 1019.8
20260831144503 84 227 3.0 5.0 0.00 0.00 0.00 74 1019.8
20260831143059 83 298 1.0 4.0 0.00 0.00 0.00 79 1019.8
20260831141554 81 188 1.0 4.0 0.00 0.00 0.00 82 1019.8